Weather History for LIEB - October, 2011

Change the Weather History Date:

Thursday, October 20, 2011

  Actual Average (LIED) Record (LIED)
Temperature  
Mean Temperature 66 °F -  
Max Temperature 73 °F 66 °F 86 °F (2014)
Min Temperature 59 °F 55 °F 44 °F (2007)
Cooling Degree Days 1    
Growing Degree Days 16 (Base 50)    
Moisture  
Dew Point 50 °F    
Average Humidity 54    
Maximum Humidity 73    
Minimum Humidity 25    
Precipitation  
Precipitation 0.00 in 0.08 in - ()
Sea Level Pressure  
Sea Level Pressure 29.97 in    
Wind  
Wind Speed 9 mph ()    
Max Wind Speed 14 mph    
Max Gust Speed -    
Visibility 7.5 miles    
Events Rain    
Averages and records for this station are not official NWS values.
T = Trace of Precipitation, MM = Missing Value Source: Averaged Metar Reports

Daily Weather History Graph

Daily Weather History Graph

Search for Another Location

Airport or City:

Trip Planner

Search our weather history database for the weather conditions in past years. The results will help you decide how hot, cold, wet, or windy it might be!

Date:

Astronomy

Oct. 20, 2011 Rise Set
Actual Time 7:36 AM CEST 6:35 PM CEST
Civil Twilight 7:08 AM CEST 7:02 PM CEST
Nautical Twilight 6:37 AM CEST 7:33 PM CEST
Astronomical Twilight 6:06 AM CEST 8:05 PM CEST
Moon 12:04 AM CEST (10/20) 2:33 PM CEST (10/20)
Length of Visible Light 11h 53m
Length of Day
10h 58m
Waning Gibbous, 47% of the Moon is Illuminated
Oct 20
Waning Gibbous
Oct 26
New
Nov 2
First Quarter
Nov 10
Full
Nov 18
Last Quarter

Hourly Weather History & Observations

Time (CEST) Temp. Dew Point Humidity Pressure Visibility Wind Dir Wind Speed Gust Speed Precip Events Conditions
1:55 AM 66.2 °F 46.4 °F 49% 30.01 in - SSW 11.5 mph - N/A   Clear
2:00 AM 66 °F 47 °F 39% 30.00 in 12 mi SSW 11.5 mph - -   Scattered Clouds
2:55 AM 66.2 °F 48.2 °F 52% 29.98 in - SSW 13.8 mph - N/A   Clear
3:55 AM 64.4 °F 50.0 °F 59% 29.98 in 6.2 mi SW 11.5 mph - N/A   Partly Cloudy
4:55 AM 64.4 °F 50.0 °F 59% 29.98 in - WSW 10.4 mph - N/A   Clear
5:55 AM 64.4 °F 46.4 °F 52% 29.95 in 6.2 mi WSW 9.2 mph - N/A   Partly Cloudy
6:55 AM 66.2 °F 46.4 °F 49% 29.95 in - SSW 9.2 mph - N/A   Clear
8:00 AM 65 °F 53 °F 56% 29.94 in 6 mi West 9.2 mph - - Rain Light Rain
8:55 AM 64.4 °F 48.2 °F 56% 29.95 in 6.2 mi WSW 9.2 mph - N/A Rain Light Rain
9:55 AM 68.0 °F 53.6 °F 60% 29.98 in - NW 4.6 mph - N/A   Clear
10:55 AM 69.8 °F 57.2 °F 64% 29.98 in - East 6.9 mph - N/A   Clear
11:55 AM 69.8 °F 60.8 °F 73% 29.98 in 6.2 mi East 12.7 mph - N/A   Partly Cloudy
12:55 PM 71.6 °F 60.8 °F 69% 29.98 in 6.2 mi East 11.5 mph - N/A   Mostly Cloudy
1:55 PM 71.6 °F 60.8 °F 69% 29.98 in 6.2 mi East 12.7 mph - N/A   Mostly Cloudy
2:00 PM 72 °F 60 °F 57% 29.97 in 12 mi East 12.7 mph - -   Partly Cloudy
2:55 PM 71.6 °F 60.8 °F 69% 29.98 in 6.2 mi East 10.4 mph - N/A   Scattered Clouds
3:55 PM 73.4 °F 59.0 °F 61% 29.95 in 6.2 mi SE 5.8 mph - N/A   Scattered Clouds
5:55 PM 68.0 °F 57.2 °F 68% 29.95 in 6.2 mi SE 5.8 mph - N/A   Scattered Clouds
6:55 PM 69.8 °F 50.0 °F 49% 29.95 in - WNW 8.1 mph - N/A   Clear
8:00 PM 67 °F 39 °F 25% 29.94 in 12 mi West 10.4 mph - -  
8:55 PM 66.2 °F 41.0 °F 40% 29.95 in - WNW 9.2 mph - N/A   Clear
9:55 PM 62.6 °F 33.8 °F 34% 29.98 in - WNW 13.8 mph - N/A   Clear
10:55 PM 59.0 °F 33.8 °F 39% 29.98 in - WNW 13.8 mph - N/A   Clear
11:55 PM 59.0 °F 39.2 °F 48% 30.01 in - WNW 13.8 mph - N/A   Clear